Taurus 1
1 44530U 19059C   25064.82727733  .00011032  00000-0  21363-2 0  9990
2 44530  98.5933 199.8910 0009164 324.9955  35.0643 14.63458421289928
Duchifat 3
1 44854U 19089C   25064.84349892  .00048071  00000-0  13318-2 0  9994
2 44854  36.9466 239.4846 0005435 103.6626 256.4732 15.35972535288167
TO-108
1 44881U 19093C   25064.77284568  .00001796  00000-0  21534-3 0  9992
2 44881  97.8001 142.4189 0013927 180.6901 179.4297 14.85226451281859
FloripaSat 1
1 44885U 19093G   25064.80982001  .00008899  00000-0  78485-3 0  9995
2 44885  97.8187 152.3281 0011349 162.4618 197.6997 14.96603329282417
RS-44
1 44909U 19096E   25064.54878913  .00000019  00000-0  26062-4 0  9993
2 44909  82.5190 291.1018 0217772 159.8705 201.1153 12.79738857242408
UPMSat 2
1 46276U 20061E   25064.14183825  .00048251  00000-0  72013-3 0  9999
2 46276  97.2574 136.2054 0001060 184.2401 175.8844 15.54917974250410
SALSAT
1 46495U 20068K   25064.48310135  .00013644  00000-0  62751-3 0  9998
2 46495  97.8521  38.2754 0013789 128.6364 231.6107 15.20390462243910
CubeSX-Sirius-HSE
1 47951U 21022V   25064.82411433  .00095890  00000-0  13469-2 0  9992
2 47951  97.4299 332.8294 0003487 288.5102  71.5774 15.56377749218788
CubeSX-HSE
1 47952U 21022W   25064.79777613  .00099435  00000-0  13654-2 0  9999
2 47952  97.4301 332.9964 0003269 273.3319  86.7562 15.56979014218795
KSU-Cubesat
1 47954U 21022Y   25064.71376501  .00511770  00000-0  19768-2 0  9997
2 47954  97.4232 337.6598 0004395 140.9611 219.1977 15.86006060218809
GRBAlpha
1 47959U 21022AD  25064.82607702  .00098652  00000-0  13655-2 0  9992
2 47959  97.4286 333.1769 0003443 284.9848  75.1026 15.56765847217624
Orbicraft-Zorkiy
1 47960U 21022AE  25064.80503136  .00220024  00000-0  17308-2 0  9997
2 47960  97.4269 336.5850 0001431 179.9286 180.1977 15.70815127218502
TUBIN
1 48900U 21059X   25064.74760013  .00049799  00000-0  89308-3 0  9992
2 48900  97.6688 226.9748 0004990 234.9270 125.1513 15.49762433205148
LEDSAT
1 49069U 21073D   25064.74368397  .00055943  00000-0  11116-2 0  9993
2 49069  97.3993 143.2358 0011987  71.8630 288.3924 15.46714140196552
CUTE
1 49263U 21088D   25064.23229764  .00018524  00000-0  43047-3 0  9996
2 49263  97.4596 137.9690 0008817 225.5865 134.4661 15.42355598189558
TeikyoSat 4
1 49396U 21102B   25064.56076662  .00002946  00000-0  20069-3 0  9993
2 49396  97.4246 106.4237 0014510 101.8920 258.3936 15.06939850182081
Z-Sat
1 49399U 21102E   25064.77542858  .00006969  00000-0  39565-3 0  9994
2 49399  97.3950 109.1723 0020197  78.0756 282.2738 15.13061461182487
KOSEN 1
1 49402U 21102H   25064.71670170  .00010935  00000-0  53554-3 0  9994
2 49402  97.3857 111.8512 0017751  58.0415 302.2542 15.18196967182735
HO-113
1 50466U 21131B   25064.78159585  .00000966  00000-0  31686-3 0  9992
2 50466  98.5109 154.6268 0005060  72.0028 288.1712 14.40589908167659
IRIS-A
1 51044U 22002BN  25064.71886367  .00104621  00000-0  11969-2 0  9995
2 51044  97.3385 140.3445 0004249 179.5305 180.5958 15.61794873174763
Foresail-1
1 52766U 22057AL  25064.37228052  .00102261  00000-0  12115-2 0  9992
2 52766  97.6005 207.1559 0007178 268.0066  92.0369 15.60871351154742
SNUGLITE 2
1 52899U 22065F   25064.67280048  .00002359  00000-0  47180-3 0  9992
2 52899  98.1512 207.6911 0008313  59.6363 300.5659 14.62739849142462
IO-117
1 53106U 22080B   25051.21822557 -.00000003  00000-0  00000+0 0  9995
2 53106  70.1434 106.3440 0008542  48.0089 312.1297  6.42557744 61200
FO-118
1 54684U 22167C   25064.68183564  .08547514  26414-5  93170-3 0  9992
2 54684  97.5856 230.7463 0011725 277.2083  82.7881 16.37185507124845
UmKA 1 (RS40S)
1 57172U 23091G   25064.81085043  .00008550  00000-0  47976-3 0  9997
2 57172  97.5726 120.7350 0013635 307.8298  52.1699 15.13523616 92986
CubeBel-2 (EU11S)
1 57175U 23091K   25064.79692391  .00012959  00000-0  66742-3 0  9997
2 57175  97.5723 121.3559 0011784 318.2189  41.8143 15.16473805 93024
VERONIKA
1 58261U 23174F   25064.78830978  .00073452  00000-0  14175-2 0  9997
2 58261  97.4233 146.9271 0006005  29.2241 330.9344 15.47545339 73768
KAFASAT
1 58317U 23174BP  25064.47124719  .00274483  00000-0  19543-2 0  9995
2 58317  97.4106 150.4774 0005344 304.0330  56.0426 15.73026324 73994
ENSO
1 58470U 23185J   25064.77683429  .00048929  00000-0  10760-2 0  9994
2 58470  97.3854 137.6111 0008333  71.6950 288.5203 15.43803917 70193
EIRSAT-1
1 58472U 23185L   25064.80852088  .00066099  00000-0  12383-2 0  9990
2 58472  97.3847 138.4423 0006820  70.3021 289.8965 15.48427261 70251
SONATE-2
1 59112U 24043Q   25064.32285960  .00027730  00000-0  92702-3 0  9995
2 59112  97.4986 193.9693 0012168  97.4455 262.8168 15.30897191 55585
MO-122
1 60209U 24125G   25064.81319399  .00025569  00000-0  84256-3 0  9996
2 60209  97.2926 277.7232 0021858 118.8048 241.5392 15.31212815 37272
GRBBeta
1 60237U 24128C   25064.67370912  .00008050  00000-0  62784-3 0  9990
2 60237  61.9928  53.6407 0043025  35.7635 324.6323 15.01161025 35792
Curium One
1 60242U 24128H   25064.37672632  .00015194  00000-0  11244-2 0  9998
2 60242  61.9829  54.1574 0043218  30.6897 329.6708 15.02637225 35767
ROBUSTA-3A
1 60243U 24128J   25064.35276807  .00013834  00000-0  10375-2 0  9994
2 60243  61.9897  54.7742 0041495  28.6166 331.7189 15.02251930 35758
CatSat
1 60246U 24125J   25064.56359122  .00014129  00000-0  50872-3 0  9994
2 60246  97.2711 277.6562 0046598  76.4481 284.1943 15.27636013 35311
HYPERVIEW-1G (RS66S)
1 61772U 24199AP  25064.79149393  .00027741  00000-0  95518-3 0  9992
2 61772  97.3698 294.1051 0015316 169.5229 190.6334 15.29896295 62289
AO-123
1 61781U 24199AY  25064.80558037  .00011492  00000-0  44430-3 0  9996
2 61781  97.3705 293.7953 0016621 171.3856 188.7671 15.26257322 62260
ZIMSAT 2
1 61783U 24199BA  25064.80792869  .00039801  00000-0  12860-2 0  9996
2 61783  97.3691 294.2294 0016219 168.7525 191.4083 15.31860132 65442
POEM 4 (BGS ARPIT)
1 62461U 24253C   25064.72785458  .00248696  33526-4  80353-3 0  9998
2 62461  55.2167 304.9218 0008422 112.7679 247.4266 15.90428801 10261
HADES-R (SO-124)
1 62690U 25009CK  25064.74565157  .00041169  00000-0  19148-2 0  9992
2 62690  97.4173 146.4975 0002614  83.6593 276.4939 15.19827975  7549
